Regional Weather Roundup
Issued by NWS Little Rock, AR

Home | Current Version | Previous Version | Text Only | Print | Product List | Glossary On
Versions: 1 2 3 4 5 6 7 8 9 10 11 12 13 14 15 16 17 18 19 20 21 22 23 24 25 26 27 28 29 30 31 32
000
ASUS44 KLZK 221905
RWRLZK

WEATHER ROUNDUP FOR ARKANSAS
NATIONAL WEATHER SERVICE LITTLE ROCK AR
100 PM CST WED NOV 22 2017

NOTE: "FAIR" INDICATES FEW OR NO CLOUDS BELOW 12,000 FEET WITH NO
SIGNIFICANT WEATHER AND/OR OBSTRUCTIONS TO VISIBILITY.

ARZ001-003-010-029-222000-
NORTHWEST ARKANSAS

CITY           SKY/WX    TMP DP  RH WIND       PRES   REMARKS
FAYETTEVILLE   SUNNY     47  23  38 VRB5      30.33F
FORT SMITH     SUNNY     50  23  34 CALM      30.33F
HARRISON       SUNNY     44  18  35 NW8       30.32F
BENTONVILLE    SUNNY     43  20  39 VRB3      30.35F
ROGERS         SUNNY     43  20  39 CALM      30.34F
SILOAM SPGS    SUNNY     45  21  38 VRB3      30.34F
HIGHFILL       SUNNY     43  21  41 VRB3      30.34F
SPRINGDALE     SUNNY     45  21  39 NE6       30.35F
$$

ARZ004-005-016-222000-
NORTH CENTRAL ARKANSAS

CITY           SKY/WX    TMP DP  RH WIND       PRES   REMARKS
BATESVILLE     SUNNY     46  20  35 NE3       30.33F
FLIPPIN        SUNNY     45  18  34 N6        30.34F
MTN HOME       SUNNY     42  20  41 MISG      30.31F
$$

ARZ040-041-222000-
WEST CENTRAL ARKANSAS

CITY           SKY/WX    TMP DP  RH WIND       PRES   REMARKS
MENA           SUNNY     52  23  32 N3        30.28F
MOUNT IDA      SUNNY     52  23  32 VRB3      30.27F
$$

ARZ009-017-025-026-028-222000-
NORTHEAST ARKANSAS

CITY           SKY/WX    TMP DP  RH WIND       PRES   REMARKS
JONESBORO      SUNNY     44  25  47 E8G16     30.33F
NEWPORT        SUNNY     43  23  45 N8        30.34F
BLYTHEVILLE    SUNNY     44  26  49 NE9       30.31F
$$

ARZ022-023-033-042-044-222000-
CENTRAL ARKANSAS

CITY           SKY/WX    TMP DP  RH WIND       PRES   REMARKS
LITTLE ROCK    SUNNY     49  21  33 N7        30.32F
JACKSONVILLE   SUNNY     49  20  32 NE8       30.31F
SEARCY         SUNNY     48  22  35 NE8       30.33F
HOT SPRINGS    SUNNY     52  20  28 VRB6      30.30F
RUSSELLVILLE   SUNNY     49  21  33 SE6       30.32F
CLINTON        FAIR      48  14  25 CALM      30.32F
$$

ARZ036-222000-
EAST ARKANSAS

CITY           SKY/WX    TMP DP  RH WIND       PRES   REMARKS
WEST MEMPHIS   SUNNY     46  27  47 NE7       30.29F
$$

ARZ050-053-066-070-073-222000-
SOUTHWEST ARKANSAS

CITY           SKY/WX    TMP DP  RH WIND       PRES   REMARKS
ARKADELPHIA    FAIR      52  24  33 VRB6      30.31F
CAMDEN         SUNNY     55  21  26 N12       30.29F
TEXARKANA      SUNNY     54  27  35 NE7       30.29F
EL DORADO      SUNNY     54  29  38 N10       30.27F
DE QUEEN       SUNNY     56  28  34 MISG      30.28F
$$

ARZ056-057-069-222000-
SOUTHEAST ARKANSAS

CITY           SKY/WX    TMP DP  RH WIND       PRES   REMARKS
PINE BLUFF     SUNNY     47  24  40 N13       30.31F
STUTTGART      SUNNY     47  23  38 NE13G18   30.31F
MONTICELLO     SUNNY     50  25  37 NE8       30.29F

$$






USA.gov is the U.S. government's official web portal to all federal, state and local government web resources and services.